Home > Weather > Moscow > Past weeks

Flag for U.S.A. Weather for the Past 2 Weeks in Moscow, Idaho, U.S.A.

Now
43 °F

Overcast.


Feels Like: 43 °F
Forecast: 41 / 51 °F
Wind: No wind

Location: Pullman / Moscow Regional Airport

Current Time: Feb 10, 2016 at 10:53:39 PM

Latest Report: Feb 10, 2016 at 9:53 PM


Visibility: 10 mi

Pressure: 30.34 "Hg (27.57 "Hg at 781m altitude)

Humidity: 74%

Dew point: 35 °F

Location of MoscowLocation

Historic Weather in Moscow — Graph

°F

Moscow Temperature Yesterday

Maximum temperature yesterday: 56 °F (at 2:53 PM)
Minimum temperature yesterday: 35 °F (at 11:53 PM)
Average temperature yesterday: 44 °F

High & Low Weather Summary for the Past Weeks

 TemperatureHumidityPressure
High56 °F (Feb 9, 2:53 PM)96% (Feb 4, 6:53 AM)30.70 "Hg (Feb 4, 6:53 AM)
Low25 °F (Feb 2, 6:53 AM)53% (Feb 9, 2:53 PM)29.64 "Hg (Jan 29, 12:00 PM)
Average38 °F77%30.26 "Hg
* Reported Jan 26 8:53 PM — Feb 10 8:53 PM, Moscow, Weather by CustomWeather, © 2016

Note: Actual official high and low records may vary slightly from our data, if they occured in-between our weather recording intervals... More about our weather records

Advertising

Moscow Weather History for the Previous 24 Hours

 ConditionsComfort  
Time TempWeatherWind HumidityBarometerVisibility
8:53 PM
Wed, Feb 10
44 °FClear.3 mph68%30.33 "Hg10 mi
7:53 PM44 °FOvercast.No wind71%30.33 "Hg10 mi
6:53 PM45 °FOvercast.No wind71%30.34 "Hg10 mi
5:53 PM46 °FMostly cloudy.6 mph68%30.34 "Hg10 mi
4:53 PM48 °FMore clouds than sun.6 mph66%30.32 "Hg10 mi
3:53 PM50 °FPartly sunny.9 mph61%30.31 "Hg10 mi
2:53 PM48 °FPartly sunny.9 mph61%30.31 "Hg10 mi
1:53 PM49 °FSunny.10 mph59%30.29 "Hg10 mi
12:53 PM49 °FSunny.15 mph59%30.30 "Hg10 mi
11:53 AM48 °FSunny.17 mph59%30.30 "Hg10 mi
10:53 AM45 °FSunny.15 mph65%30.34 "Hg10 mi
9:53 AM45 °FSunny.15 mph63%30.32 "Hg10 mi
8:53 AM44 °FSunny.13 mph68%30.31 "Hg10 mi
7:53 AM41 °FSunny.14 mph67%30.30 "Hg10 mi
6:53 AM37 °FClear.8 mph79%30.29 "Hg10 mi
5:53 AM38 °FClear.6 mph76%30.30 "Hg10 mi
4:53 AM37 °FClear.8 mph79%30.29 "Hg10 mi
3:53 AM39 °FClear.12 mph73%30.28 "Hg10 mi
2:53 AM38 °FClear.10 mph76%30.28 "Hg10 mi
1:53 AM37 °FClear.3 mph79%30.29 "Hg10 mi
12:53 AM37 °FClear.7 mph79%30.29 "Hg10 mi
11:53 PM
Tue, Feb 9
35 °FClear.6 mph85%30.29 "Hg10 mi
10:53 PM36 °FClear.No wind92%30.30 "Hg7 mi
Weather by CustomWeather, © 2016

See weather overviewHow to use our weather pages